Regional Weather Roundup
Issued by NWS Huntsville, AL

Home | Current Version | Previous Version | Text Only | Print | Product List | Glossary On
Versions: 1 2 3 4 5 6 7 8 9 10 11 12 13 14 15 16 17 18 19 20 21 22 23 24 25 26 27 28 29 30 31 32 33 34 35 36 37 38 39 40 41 42 43 44 45 46 47 48 49 50
000
ASUS44 KHUN 030410
RWRHUN

WEATHER ROUNDUP FOR THE TENNESSEE VALLEY
NATIONAL WEATHER SERVICE HUNTSVILLE AL
1100 PM CDT SUN AUG 02 2015

ALZ001>004-030500-
NORTHWEST ALABAMA

CITY           SKY/WX    TMP DP  RH WIND       PRES   REMARKS
COURTLAND HCN    N/A     68 N/A N/A CALM        N/A
RUSSELLVILLE     N/A     68 N/A N/A MISG        N/A
SHOALS AIRPORT CLEAR     69  63  81 CALM      29.93R
SHOALS TVA RES   N/A     70 N/A N/A MISG        N/A
$$

ALZ005>007-016-030500-
NORTH CENTRAL ALABAMA

CITY           SKY/WX    TMP DP  RH WIND       PRES   REMARKS
CULLMAN AG STN   N/A     64 N/A N/A CALM        N/A
DECATUR AP     CLEAR     69  63  81 CALM      29.92R
HUNTSVILLE AP  PTCLDY    73  63  70 CALM      29.92R
MERIDIANVILLE  PTCLDY    68  63  83 CALM      29.93R
REDSTONE ARSN  CLEAR     73  62  69 N5        29.92R
VINEMONT AP    FAIR      64  62  91 CALM      29.95R
$$

ALZ008>010-030500-
NORTHEAST ALABAMA

CITY           SKY/WX    TMP DP  RH WIND       PRES   REMARKS
ALBERTVILLE    CLEAR     73  64  73 NE3       29.93R
FORT PAYNE     PTCLDY    68  59  73 CALM      29.93R
SCOTTSBORO AP  PTCLDY    72  66  83 CALM      29.93R
SCOTTSBORO HCN   N/A     68 N/A N/A MISG        N/A
VALLEY HEAD      N/A     68 N/A N/A MISG        N/A
$$

TNZ076-096-097-030500-
SOUTHEASTERN MIDDLE TENNESSEE

CITY           SKY/WX    TMP DP  RH WIND       PRES   REMARKS
TULLAHOMA      CLEAR     66  61  82 CALM      29.96R
WINCHESTER     CLEAR     66  63  88 CALM      29.95R
$$

...SURROUNDING SITES...

CITY           SKY/WX    TMP DP  RH WIND       PRES   REMARKS
ATLANTA        MOCLDY    81  67  62 SE7       29.92S
ANNISTON       CLEAR     73  64  73 CALM      29.90S
BIRMINGHAM     CLEAR     75  60  59 CALM      29.92S
CHATTANOOGA    MOCLDY    74  65  73 CALM      29.92S
DALTON         PTCLDY    72  70  94 CALM      29.92S
GADSDEN        CLEAR     70  55  60 CALM      29.90R
GOLDEN TRNGL   CLEAR     75  64  69 CALM      29.90R
HALEYVILLE     FAIR      67  65  93 CALM      29.96S
JACKSON TN     CLEAR     75  71  87 CALM      29.92R
MEMPHIS        PTCLDY    80  69  69 CALM      29.91R
NASHVILLE      CLEAR     73  54  51 CALM      29.93S
ROME           PTCLDY    75  66  73 N3        29.90S
SAVANNAH       CLEAR     66  32  28 CALM      29.93R
TUPELO         CLEAR     77  68  73 CALM      29.90S
TUSCALOOSA     CLEAR     77  68  73 CALM      29.88F
$$

...GULF COAST WEATHER...

CITY           SKY/WX    TMP DP  RH WIND       PRES   REMARKS
GULFPORT       PTCLDY    81  74  79 CALM      29.87S
PASCAGOULA     MOCLDY    79  78  97 CALM      29.88S
MOBILE         PTCLDY    82  76  81 SW5       29.89S
GULF SHORES    PTCLDY    82  77  84 W5        29.87F HX  91
PENSACOLA      CLOUDY    82  75  79 SW3       29.88S
DESTIN         PTCLDY    85  72  65 CALM      29.86S HX  91
PANAMA CITY    PTCLDY    85  78  80 W9        29.86S HX  96
APPALACHICOLA  CLOUDY    83  75  77 NW3       29.85S HX  90
$$



USA.gov is the U.S. government's official web portal to all federal, state and local government web resources and services.